Date String (YYYY-MM-DD hh:mm:ss) UTC,Instrument flags,Ambient pressure (hPa),Sample flow (lpm),Bypass flow (lpm),Sample temperature (°C),Ambient temperature (°C),ASC tube jacket temperature (°C),LED temperature (°C),Box temperature (°C),Sample RH (%),Span deviation,Mass concentration (μg/m³),Mass concentration (μg/m³),Mass concentration (μg/m³)
DateTimeUTC,F1_M11,P_M11,Q1_M11,Q2_M11,T1_M11,T2_M11,T3_M11,T4_M11,T5_M11,U1_M11,ZSPAN_M11,X0_M11,X2_M11,X1_M11
2021-11-11 20:00:00,,0824.8,5.01,0.00,25.4,24.4,00.0,34.4,27.1,09.7,0000.0,0008.49,0002.01,0001.02
2021-11-11 20:01:00,,0824.8,4.99,0.00,25.4,24.4,00.0,34.4,27.1,09.7,0000.0,0009.67,0002.13,0001.01
2021-11-11 20:02:00,,0824.8,5.00,0.00,25.4,24.4,00.0,34.4,27.1,09.7,0000.0,0010.66,0002.11,0001.01
2021-11-11 20:03:00,,0824.7,5.01,0.00,25.4,24.4,00.0,34.4,27.1,09.8,0000.0,0010.18,0002.05,0001.00
2021-11-11 20:04:00,,0824.7,5.00,0.00,25.4,24.4,00.0,34.4,27.1,09.8,0000.0,0009.25,0002.00,0000.97
2021-11-11 20:05:00,,0824.9,5.00,0.00,25.4,24.4,00.0,34.4,27.1,09.8,0000.0,0009.37,0001.98,0000.98
2021-11-11 20:06:00,,0824.8,5.00,0.00,25.4,24.4,00.0,34.4,27.1,09.9,0000.0,0009.74,0001.98,0000.96
2021-11-11 20:07:00,,0824.9,5.01,0.00,25.4,24.4,00.0,34.4,27.1,10.0,0000.0,0009.22,0001.93,0000.95
2021-11-11 20:08:00,,0824.8,5.00,0.00,25.4,24.4,00.0,34.4,27.2,10.0,0000.0,0008.92,0001.97,0000.95
2021-11-11 20:09:00,,0824.9,5.01,0.00,25.4,24.5,00.0,34.4,27.2,09.9,0000.0,0008.94,0001.99,0000.95
2021-11-11 20:10:00,,0824.8,5.00,0.00,25.4,24.4,00.0,34.5,27.2,09.9,0000.0,0008.96,0001.97,0000.95
2021-11-11 20:11:00,,0824.6,5.01,0.00,25.4,24.5,00.0,34.5,27.2,09.9,0000.0,0008.98,0001.95,0000.95
2021-11-11 20:12:00,,0824.6,5.00,0.00,25.5,24.5,00.0,34.5,27.3,09.8,0000.0,0007.78,0001.83,0000.94
2021-11-11 20:13:00,,0824.7,5.00,0.00,25.5,24.6,00.0,34.5,27.3,09.8,0000.0,0005.61,0001.70,0000.91
2021-11-11 20:14:00,,0824.7,5.00,0.00,25.5,24.6,00.0,34.5,27.2,09.7,0000.0,0005.43,0001.71,0000.89
2021-11-11 20:15:00,,0824.6,4.99,0.00,25.5,24.6,00.0,34.5,27.3,09.8,0000.0,0005.57,0001.73,0000.88
2021-11-11 20:16:00,,0824.4,5.01,0.00,25.5,24.6,00.0,34.5,27.2,09.8,0000.0,0005.08,0001.68,0000.87
2021-11-11 20:17:00,,0824.4,4.99,0.00,25.5,24.6,00.0,34.5,27.2,09.9,0000.0,0004.35,0001.55,0000.86
2021-11-11 20:18:00,,0824.4,5.00,0.00,25.5,24.6,00.0,34.5,27.2,09.7,0000.0,0005.23,0001.51,0000.85
2021-11-11 20:19:00,,0824.7,5.02,0.00,25.5,24.6,00.0,34.5,27.2,09.8,0000.0,0005.43,0001.44,0000.83
2021-11-11 20:20:00,,0824.7,5.01,0.00,25.5,24.5,00.0,34.5,27.2,09.7,0000.0,0005.72,0001.36,0000.81
2021-11-11 20:21:00,,0824.7,4.99,0.00,25.5,24.5,00.0,34.5,27.2,09.9,0000.0,0006.41,0001.33,0000.80
2021-11-11 20:22:00,,0824.6,5.00,0.00,25.5,24.5,00.0,34.5,27.2,09.8,0000.0,0006.39,0001.37,0000.78
2021-11-11 20:23:00,,0824.6,5.01,0.00,25.5,24.5,00.0,34.5,27.2,09.8,0000.0,0006.25,0001.38,0000.76
2021-11-11 20:24:00,,0824.4,5.00,0.00,25.5,24.6,00.0,34.5,27.3,09.9,0000.0,0006.49,0001.42,0000.76
2021-11-11 20:25:00,,0824.7,4.99,0.00,25.5,24.6,00.0,34.5,27.3,09.9,0000.0,0007.39,0001.52,0000.76
2021-11-11 20:26:00,,0824.7,4.99,0.00,25.5,24.6,00.0,34.5,27.2,10.0,0000.0,0007.62,0001.54,0000.76
2021-11-11 20:27:00,,0824.6,5.01,0.00,25.5,24.6,00.0,34.5,27.2,10.0,0000.0,0007.76,0001.57,0000.75
2021-11-11 20:28:00,,0824.4,5.01,0.00,25.5,24.6,00.0,34.5,27.3,09.7,0000.0,0007.59,0001.58,0000.74
2021-11-11 20:29:00,,0824.7,5.00,0.00,25.5,24.6,00.0,34.5,27.3,09.7,0000.0,0007.10,0001.59,0000.73
2021-11-11 20:30:00,,0824.6,5.00,0.00,25.5,24.6,00.0,34.5,27.3,09.8,0000.0,0007.32,0001.55,0000.72
2021-11-11 20:31:00,,0824.6,5.01,0.00,25.5,24.6,00.0,34.5,27.3,09.8,0000.0,0007.30,0001.53,0000.71
2021-11-11 20:32:00,,0824.6,4.99,0.00,25.5,24.6,00.0,34.5,27.3,09.8,0000.0,0006.79,0001.54,0000.70
2021-11-11 20:33:00,,0824.5,5.00,0.00,25.5,24.6,00.0,34.6,27.4,09.9,0000.0,0006.74,0001.53,0000.69
2021-11-11 20:34:00,,0824.5,4.99,0.00,25.5,24.6,00.0,34.6,27.3,09.8,0000.0,0006.87,0001.52,0000.69
2021-11-11 20:35:00,,0824.4,4.99,0.00,25.5,24.6,00.0,34.6,27.3,09.9,0000.0,0007.02,0001.53,0000.68
2021-11-11 20:36:00,,0824.4,5.00,0.00,25.5,24.6,00.0,34.6,27.3,10.0,0000.0,0006.24,0001.41,0000.67
2021-11-11 20:37:00,,0824.4,5.00,0.00,25.5,24.6,00.0,34.6,27.3,10.0,0000.0,0005.67,0001.34,0000.66
2021-11-11 20:38:00,,0824.5,5.00,0.00,25.6,24.6,00.0,34.6,27.3,10.1,0000.0,0005.50,0001.35,0000.65
2021-11-11 20:39:00,,0824.3,5.00,0.00,25.6,24.6,00.0,34.6,27.3,09.9,0000.0,0006.52,0001.35,0000.65
2021-11-11 20:40:00,,0824.6,4.99,0.00,25.6,24.6,00.0,34.6,27.4,09.9,0000.0,0007.56,0001.38,0000.64
2021-11-11 20:41:00,,0824.5,4.99,0.00,25.6,24.5,00.0,34.6,27.3,09.9,0000.0,0007.07,0001.35,0000.64
2021-11-11 20:42:00,,0824.4,5.00,0.00,25.6,24.5,00.0,34.6,27.3,10.0,0000.0,0005.77,0001.33,0000.63
2021-11-11 20:43:00,,0824.3,5.00,0.00,25.6,24.5,00.0,34.6,27.3,10.0,0000.0,0005.67,0001.28,0000.62
2021-11-11 20:44:00,,0824.1,5.01,0.00,25.6,24.6,00.0,34.6,27.4,10.0,0000.0,0005.47,0001.25,0000.62
2021-11-11 20:45:00,,0824.3,5.00,0.00,25.6,24.6,00.0,34.6,27.4,10.0,0000.0,0005.33,0001.21,0000.61
2021-11-11 20:46:00,,0824.4,5.00,0.00,25.6,24.6,00.0,34.6,27.3,09.9,0000.0,0004.86,0001.21,0000.61
2021-11-11 20:47:00,,0824.3,5.00,0.00,25.6,24.6,00.0,34.6,27.3,10.0,0000.0,0006.35,0001.22,0000.60
2021-11-11 20:48:00,,0824.4,5.01,0.00,25.6,24.6,00.0,34.6,27.3,10.3,0000.0,0008.23,0001.21,0000.59
2021-11-11 20:49:00,,0824.2,5.00,0.00,25.6,24.6,00.0,34.6,27.4,10.4,0000.0,0008.33,0001.18,0000.60
2021-11-11 20:50:00,,0824.2,4.99,0.00,25.6,24.7,00.0,34.6,27.4,10.2,0000.0,0008.07,0001.19,0000.59
2021-11-11 20:51:00,,0824.0,5.01,0.00,25.6,24.6,00.0,34.6,27.4,10.2,0000.0,0007.87,0001.18,0000.58
2021-11-11 20:52:00,,0824.1,4.99,0.00,25.6,24.7,00.0,34.6,27.4,10.2,0000.0,0008.58,0001.27,0000.56
2021-11-11 20:53:00,,0824.0,5.00,0.00,25.6,24.7,00.0,34.6,27.4,10.2,0000.0,0008.74,0001.34,0000.56
2021-11-11 20:54:00,,0824.2,5.01,0.00,25.6,24.7,00.0,34.6,27.4,10.4,0000.0,0008.84,0001.37,0000.56
2021-11-11 20:55:00,,0824.2,4.99,0.00,25.6,24.6,00.0,34.6,27.4,10.5,0000.0,0008.90,0001.35,0000.55
2021-11-11 20:56:00,,0824.1,5.00,0.00,25.6,24.6,00.0,34.6,27.4,10.5,0000.0,0009.05,0001.36,0000.55
2021-11-11 20:57:00,,0824.0,5.01,0.00,25.6,24.7,00.0,34.6,27.4,10.5,0000.0,0009.02,0001.29,0000.54
2021-11-11 20:58:00,,0824.1,4.99,0.00,25.6,24.7,00.0,34.7,27.4,10.5,0000.0,0008.12,0001.28,0000.54
2021-11-11 20:59:00,,0824.1,5.00,0.00,25.6,24.7,00.0,34.7,27.4,10.6,0000.0,0006.27,0001.25,0000.52
